{"data":{"norad_id":45161,"epoch":"2026-05-25T03:37:01.713792Z","epoch_age_seconds":72090,"freshness":"FRESH","line1":"1 45161U 20008AG  26145.15071428  .00000511  00000+0  14276-2 0  9991","line2":"2 45161  87.8855  40.8653 0001703  72.4712 287.6601 13.10375759305403","mean_motion":13.10375759,"eccentricity":0.0001703,"inclination_deg":87.8855,"raan_deg":40.8653,"arg_perigee_deg":72.4712,"mean_anomaly_deg":287.6601,"bstar":0.0014276,"rev_number":30540,"period_min":109.89214277735,"perigee_km":1220.411522302,"apogee_km":1223.0000287513,"semimajor_km":7599.8427755266,"source":"CELESTRAK","updated_at":"2026-05-25T13:38:22.339723Z"}}